Check out our new BloomSky Weather System.

Active alerts


No alerts


Thunder radar  blitzortung!


Rain radar more information rain snow radar


Visit our other weather sites:

Template documentation
and downloads

And another site



Weather Underground History page Text

Daily Summary for February 22, 2017 Units:  Metric    English   Both
« Previous Day
Next Day »
Daily Weekly Monthly Yearly Custom
  High: Low: Average:
Temperature: -17.8 °C 9.4 °C 18.5 °C
Dew Point: -17.8 °C 8.3 °C 11 °C
Humidity: Humidity % 31 % 66 %
Wind Speed: 0 km/h 0 km/h 0.8 km/h
Wind Gust: 0 km/h - -
Wind:- - SW
Pressure: 0 hPa 1008 hPa -
Precipitation: 0 mm    
Historical Graphs
 
 
Tabular Data for February 22, 2017
Time Temperature Dew Point Pressure Wind Wind Speed Wind Gust Humidity Rainfall Rate (Hourly)
-17.8 °C -17.8 °C 0 hPa Calm     Humidity % 0 mm
00:03 12 °C 10.6 °C 1012.8 hPa Calm     91 % 0 mm
00:08 11.9 °C 10.5 °C 1012.8 hPa Calm     91 % 0 mm
00:13 11.9 °C 10.5 °C 1012.8 hPa Calm     91 % 0 mm
00:18 11.9 °C 10.6 °C 1012.8 hPa Calm     92 % 0 mm
00:23 11.9 °C 10.6 °C 1012.8 hPa Calm     92 % 0 mm
00:28 11.9 °C 10.6 °C 1012.8 hPa Calm     92 % 0 mm
00:33 11.9 °C 10.6 °C 1012.8 hPa Calm     92 % 0 mm
00:38 11.8 °C 10.4 °C 1012.8 hPa Calm     91 % 0 mm
00:43 11.8 °C 10.5 °C 1012.8 hPa Calm     92 % 0 mm
00:48 11.7 °C 10.4 °C 1012.8 hPa Calm     92 % 0 mm
00:53 11.8 °C 10.7 °C 1012.4 hPa Calm     93 % 0 mm
00:58 11.7 °C 10.4 °C 1012.4 hPa Calm     92 % 0 mm
01:03 11.7 °C 10.4 °C 1012.4 hPa Calm     92 % 0 mm
01:08 11.6 °C 10.3 °C 1012.4 hPa Calm     92 % 0 mm
01:13 11.6 °C 10.3 °C 1012.4 hPa Calm     92 % 0 mm
01:18 11.6 °C 10.3 °C 1012.4 hPa Calm     92 % 0 mm
01:23 11.4 °C 10.1 °C 1012.4 hPa Calm     92 % 0 mm
01:28 11.4 °C 10.1 °C 1012.1 hPa Calm     92 % 0 mm
01:33 11.6 °C 10.3 °C 1012.1 hPa Calm     92 % 0 mm
01:39 11.8 °C 10.5 °C 1012.1 hPa Calm   1.6 km/h 92 % 0 mm
01:44 12 °C 10.6 °C 1012.1 hPa Calm   1.6 km/h 91 % 0 mm
01:49 11.9 °C 10.3 °C 1012.1 hPa Calm   1.6 km/h 90 % 0 mm
01:54 11.8 °C 10 °C 1012.1 hPa Calm     89 % 0 mm
01:59 11.6 °C 9.8 °C 1012.1 hPa Calm     89 % 0 mm
02:04 11.4 °C 9.8 °C 1012.1 hPa Calm     90 % 0 mm
02:09 11.3 °C 9.7 °C 1012.1 hPa Calm     90 % 0 mm
02:14 11.2 °C 9.6 °C 1012.1 hPa Calm     90 % 0 mm
02:19 11.2 °C 9.8 °C 1012.1 hPa Calm     91 % 0 mm
02:24 11.3 °C 9.9 °C 1012.1 hPa Calm     91 % 0 mm
02:25 11.3 °C 9.9 °C 1012.1 hPa Calm     91 % 0 mm
02:30 11.2 °C 9.8 °C 1012.1 hPa Calm     91 % 0 mm
02:35 11 °C 9.4 °C 1012.1 hPa Calm     90 % 0 mm
02:40 10.8 °C 9.2 °C 1012.1 hPa Calm     90 % 0 mm
02:45 10.8 °C 9.4 °C 1012.1 hPa Calm     91 % 0 mm
02:48 10.9 °C 9.7 °C 1012.1 hPa Calm     92 % 0 mm
02:53 10.9 °C 9.7 °C 1012.1 hPa Calm     92 % 0 mm
02:58 11.1 °C 9.8 °C 1012.1 hPa Calm     92 % 0 mm
03:03 11.4 °C 10.1 °C 1012.1 hPa Calm   1.6 km/h 92 % 0 mm
03:08 11.7 °C 10.3 °C 1012.1 hPa Calm   1.6 km/h 91 % 0 mm
03:13 11.9 °C 10.3 °C 1012.1 hPa Calm   1.6 km/h 90 % 0 mm
03:19 12 °C 10.2 °C 1012.1 hPa West 1.6 km/h 1.6 km/h 89 % 0 mm
03:24 12.1 °C 10.2 °C 1012.1 hPa Calm   1.6 km/h 88 % 0 mm
03:29 11.9 °C 9.8 °C 1012.1 hPa Calm   1.6 km/h 87 % 0 mm
03:34 11.8 °C 9.9 °C 1012.1 hPa Calm   1.6 km/h 88 % 0 mm
03:39 11.7 °C 9.8 °C 1012.1 hPa Calm     88 % 0 mm
03:44 11.5 °C 9.6 °C 1012.1 hPa Calm     88 % 0 mm
03:49 11.3 °C 9.4 °C 1012.1 hPa Calm   1.6 km/h 88 % 0 mm
03:54 11.2 °C 9.5 °C 1012.1 hPa Calm   1.6 km/h 89 % 0 mm
03:59 11.1 °C 9.4 °C 1012.1 hPa Calm   1.6 km/h 89 % 0 mm
04:04 11 °C 9.4 °C 1012.1 hPa Calm     90 % 0 mm
04:09 11.1 °C 9.5 °C 1012.1 hPa Calm     90 % 0 mm
04:14 11 °C 9.4 °C 1012.1 hPa Calm     90 % 0 mm
04:19 10.9 °C 9.3 °C 1012.1 hPa Calm     90 % 0 mm
04:24 10.8 °C 9.2 °C 1012.1 hPa Calm     90 % 0 mm
04:29 10.6 °C 9 °C 1012.1 hPa Calm     90 % 0 mm
04:30 10.6 °C 9 °C 1012.1 hPa Calm     90 % 0 mm
04:35 10.4 °C 8.8 °C 1012.1 hPa Calm     90 % 0 mm
04:40 10.3 °C 8.7 °C 1012.1 hPa Calm     90 % 0 mm
04:45 10.1 °C 8.7 °C 1012.1 hPa Calm     91 % 0 mm
04:50 10.1 °C 8.9 °C 1012.1 hPa Calm     92 % 0 mm
04:55 10.2 °C 9.1 °C 1012.1 hPa Calm     93 % 0 mm
05:00 10.3 °C 9.1 °C 1012.1 hPa Calm     92 % 0 mm
05:05 10.6 °C 9.5 °C 1012.1 hPa Calm     93 % 0 mm
05:10 10.8 °C 9.7 °C 1012.1 hPa Calm     93 % 0 mm
05:15 10.8 °C 9.6 °C 1012.1 hPa Calm     92 % 0 mm
05:20 10.7 °C 9.3 °C 1012.1 hPa Calm     91 % 0 mm
05:25 10.6 °C 9.4 °C 1012.4 hPa Calm     92 % 0 mm
05:30 10.6 °C 9.2 °C 1012.4 hPa Calm     91 % 0 mm
05:35 10.6 °C 9.4 °C 1012.4 hPa Calm   1.6 km/h 92 % 0 mm
05:40 10.6 °C 9.4 °C 1012.4 hPa Calm   1.6 km/h 92 % 0 mm
05:45 10.5 °C 9.3 °C 1012.1 hPa Calm   1.6 km/h 92 % 0 mm
05:50 10.6 °C 9.4 °C 1012.1 hPa Calm   1.6 km/h 92 % 0 mm
05:55 10.6 °C 9.4 °C 1012.4 hPa Calm   1.6 km/h 92 % 0 mm
06:00 10.6 °C 9.4 °C 1012.1 hPa Calm   1.6 km/h 92 % 0 mm
06:05 10.5 °C 9.3 °C 1012.1 hPa Calm   1.6 km/h 92 % 0 mm
06:10 10.4 °C 9.2 °C 1012.4 hPa Calm   1.6 km/h 92 % 0 mm
06:16 10.3 °C 9.1 °C 1012.4 hPa Calm   1.6 km/h 92 % 0 mm
06:21 10.1 °C 8.9 °C 1012.4 hPa Calm   1.6 km/h 92 % 0 mm
06:26 9.8 °C 8.6 °C 1012.4 hPa Calm   1.6 km/h 92 % 0 mm
06:31 9.7 °C 8.5 °C 1012.4 hPa Calm     92 % 0 mm
06:36 9.6 °C 8.5 °C 1012.4 hPa Calm     93 % 0 mm
06:41 9.5 °C 8.4 °C 1012.4 hPa Calm     93 % 0 mm
06:46 9.4 °C 8.3 °C 1012.4 hPa Calm     93 % 0 mm
06:51 9.4 °C 8.5 °C 1012.4 hPa Calm     94 % 0 mm
06:56 9.4 °C 8.5 °C 1012.4 hPa Calm     94 % 0 mm
07:01 9.4 °C 8.5 °C 1012.4 hPa Calm     94 % 0 mm
07:06 9.4 °C 8.6 °C 1012.4 hPa Calm     95 % 0 mm
07:11 9.5 °C 8.7 °C 1012.8 hPa Calm     95 % 0 mm
07:16 9.5 °C 8.7 °C 1012.8 hPa Calm     95 % 0 mm
07:22 9.7 °C 8.9 °C 1012.8 hPa Calm   1.6 km/h 95 % 0 mm
07:27 9.8 °C 9 °C 1012.8 hPa Calm   1.6 km/h 95 % 0 mm
07:32 9.9 °C 9.1 °C 1012.8 hPa Calm   1.6 km/h 95 % 0 mm
07:37 10.2 °C 9.6 °C 1012.8 hPa Calm   1.6 km/h 96 % 0 mm
07:42 10.4 °C 9.8 °C 1012.8 hPa Calm   1.6 km/h 96 % 0 mm
07:47 10.8 °C 10.2 °C 1012.8 hPa Calm   1.6 km/h 96 % 0 mm
07:52 11.2 °C 10.6 °C 1012.8 hPa Calm   1.6 km/h 96 % 0 mm
07:57 11.8 °C 11.2 °C 1012.8 hPa WSW 1.6 km/h 1.6 km/h 96 % 0 mm
08:02 12.4 °C 11.6 °C 1012.8 hPa Calm   1.6 km/h 95 % 0 mm
08:07 12.9 °C 11.8 °C 1013.1 hPa Calm   3.2 km/h 93 % 0 mm
08:12 13.7 °C 12.3 °C 1013.1 hPa Calm   3.2 km/h 91 % 0 mm
08:17 14.2 °C 12.4 °C 1013.1 hPa Calm   3.2 km/h 89 % 0 mm
08:22 14.8 °C 12.7 °C 1013.1 hPa Calm   3.2 km/h 87 % 0 mm
08:27 15.5 °C 13.2 °C 1013.1 hPa Calm   3.2 km/h 86 % 0 mm
08:32 16.2 °C 13.3 °C 1013.1 hPa Calm   3.2 km/h 83 % 0 mm
08:37 16.5 °C 12.8 °C 1013.1 hPa WSW 1.6 km/h 3.2 km/h 79 % 0 mm
08:42 16.8 °C 12.7 °C 1013.1 hPa Calm   3.2 km/h 77 % 0 mm
08:47 17 °C 12.5 °C 1013.1 hPa Calm   3.2 km/h 75 % 0 mm
08:52 17.1 °C 12.2 °C 1013.1 hPa NNW 1.6 km/h 6.4 km/h 73 % 0 mm
08:57 17.2 °C 12.3 °C 1013.1 hPa Calm   6.4 km/h 73 % 0 mm
09:02 17.3 °C 12.2 °C 1013.1 hPa NW 1.6 km/h 6.4 km/h 72 % 0 mm
09:07 17.7 °C 12.6 °C 1013.1 hPa WSW 1.6 km/h 6.4 km/h 72 % 0 mm
09:12 18.1 °C 12.8 °C 1013.1 hPa NW 3.2 km/h 4.8 km/h 71 % 0 mm
09:17 18.4 °C 12.8 °C 1013.1 hPa WNW 3.2 km/h 4.8 km/h 70 % 0 mm
09:22 18.5 °C 12.9 °C 1013.1 hPa WNW 1.6 km/h 4.8 km/h 70 % 0 mm
09:27 19 °C 13.2 °C 1012.8 hPa Calm   4.8 km/h 69 % 0 mm
09:32 19.3 °C 13.2 °C 1012.8 hPa North 3.2 km/h 6.4 km/h 68 % 0 mm
09:37 19.6 °C 13.3 °C 1012.8 hPa North 3.2 km/h 8 km/h 67 % 0 mm
09:42 19.8 °C 13 °C 1012.8 hPa NW 3.2 km/h 8 km/h 65 % 0 mm
09:47 20.1 °C 12.8 °C 1012.8 hPa WNW 1.6 km/h 8 km/h 63 % 0 mm
09:52 20.3 °C 12.8 °C 1012.8 hPa Calm   6.4 km/h 62 % 0 mm
09:57 20.8 °C 13.5 °C 1012.8 hPa Calm   6.4 km/h 63 % 0 mm
10:02 21.2 °C 13.4 °C 1012.8 hPa North 1.6 km/h 6.4 km/h 61 % 0 mm
10:07 21.4 °C 13.3 °C 1012.8 hPa WNW 1.6 km/h 6.4 km/h 60 % 0 mm
10:12 21.7 °C 13.1 °C 1012.8 hPa Calm   6.4 km/h 58 % 0 mm
10:17 22.3 °C 13.6 °C 1012.8 hPa NNW 4.8 km/h 6.4 km/h 58 % 0 mm
10:22 22.8 °C 13.8 °C 1012.8 hPa Calm   4.8 km/h 57 % 0 mm
10:27 23.1 °C 13.6 °C 1012.8 hPa NE 3.2 km/h 4.8 km/h 55 % 0 mm
10:32 22.9 °C 13.1 °C 1012.8 hPa Calm   6.4 km/h 54 % 0 mm
10:37 23.1 °C 13.6 °C 1012.4 hPa NW 1.6 km/h 6.4 km/h 55 % 0 mm
10:42 23.1 °C 13.3 °C 1012.4 hPa NW 1.6 km/h 6.4 km/h 54 % 0 mm
10:47 23.3 °C 13.2 °C 1012.4 hPa ESE 1.6 km/h 6.4 km/h 53 % 0 mm
10:52 23.3 °C 13.2 °C 1012.4 hPa Calm   6.4 km/h 53 % 0 mm
10:57 23.6 °C 12.9 °C 1012.4 hPa NW 8 km/h 8 km/h 51 % 0 mm
11:02 23.6 °C 13.5 °C 1012.4 hPa West 1.6 km/h 9.7 km/h 53 % 0 mm
11:07 23.9 °C 13.7 °C 1012.4 hPa Calm   9.7 km/h 53 % 0 mm
11:12 24.3 °C 12.9 °C 1012.4 hPa NW 4.8 km/h 9.7 km/h 49 % 0 mm
11:18 24.3 °C 13.2 °C 1012.1 hPa NNW 3.2 km/h 6.4 km/h 50 % 0 mm
11:23 24.6 °C 13.2 °C 1012.1 hPa WNW 3.2 km/h 6.4 km/h 49 % 0 mm
11:28 24.7 °C 12.6 °C 1012.1 hPa NNW 3.2 km/h 6.4 km/h 47 % 0 mm
11:33 24.5 °C 13.7 °C 1012.1 hPa NE 3.2 km/h 6.4 km/h 51 % 0 mm
11:38 24.8 °C 13 °C 1011.7 hPa SW 3.2 km/h 6.4 km/h 48 % 0 mm
11:43 25.4 °C 12.9 °C 1011.7 hPa SW 1.6 km/h 8 km/h 46 % 0 mm
11:48 25.6 °C 12.1 °C 1011.7 hPa NW 3.2 km/h 8 km/h 43 % 0 mm
11:53 25.3 °C 12.2 °C 1011.7 hPa SSE 3.2 km/h 8 km/h 44 % 0 mm
11:58 25.5 °C 12 °C 1011.7 hPa NW 3.2 km/h 8 km/h 43 % 0 mm
12:03 25.7 °C 12.9 °C 1011.4 hPa West 1.6 km/h 8 km/h 45 % 0 mm
12:08 25.9 °C 11.6 °C 1011.4 hPa NW 3.2 km/h 8 km/h 41 % 0 mm
12:13 25.9 °C 12.4 °C 1011.4 hPa NW 3.2 km/h 6.4 km/h 43 % 0 mm
12:18 25.9 °C 14 °C 1011.1 hPa SSW 1.6 km/h 6.4 km/h 48 % 0 mm
12:23 26.3 °C 12.7 °C 1011.1 hPa NNE 1.6 km/h 6.4 km/h 43 % 0 mm
12:28 25.9 °C 12.7 °C 1011.1 hPa North 1.6 km/h 11.3 km/h 44 % 0 mm
12:33 26 °C 12.5 °C 1011.1 hPa WNW 1.6 km/h 11.3 km/h 43 % 0 mm
12:38 26.1 °C 11.8 °C 1011.1 hPa West 3.2 km/h 11.3 km/h 41 % 0 mm
12:43 25.8 °C 11.9 °C 1011.1 hPa NW 1.6 km/h 9.7 km/h 42 % 0 mm
12:48 26.2 °C 13 °C 1010.7 hPa Calm   9.7 km/h 44 % 0 mm
12:53 26.8 °C 13.9 °C 1010.7 hPa SW 1.6 km/h 9.7 km/h 45 % 0 mm
12:58 26.9 °C 12.5 °C 1010.7 hPa WSW 4.8 km/h 8 km/h 41 % 0 mm
13:03 26.7 °C 12.4 °C 1010.4 hPa SE 1.6 km/h 11.3 km/h 41 % 0 mm
13:08 26.8 °C 11.3 °C 1010.4 hPa Calm   11.3 km/h 38 % 0 mm
13:14 27 °C 12.6 °C 1010.4 hPa SSW 3.2 km/h 11.3 km/h 41 % 0 mm
13:19 27.2 °C 12.8 °C 1010 hPa Calm   4.8 km/h 41 % 0 mm
13:24 27.2 °C 12.8 °C 1010 hPa SE 3.2 km/h 9.7 km/h 41 % 0 mm
13:29 27.2 °C 12.8 °C 1010 hPa WSW 6.4 km/h 9.7 km/h 41 % 0 mm
13:34 27.3 °C 12.9 °C 1010 hPa South 3.2 km/h 9.7 km/h 41 % 0 mm
13:39 27.1 °C 13.1 °C 1010 hPa Calm   9.7 km/h 42 % 0 mm
13:44 27.1 °C 12.3 °C 1010 hPa Calm   9.7 km/h 40 % 0 mm
13:49 27.4 °C 11.8 °C 1009.7 hPa NNW 3.2 km/h 9.7 km/h 38 % 0 mm
13:54 27.5 °C 13.1 °C 1009.7 hPa NW 3.2 km/h 8 km/h 41 % 0 mm
13:59 27.3 °C 10.5 °C 1009.7 hPa ENE 1.6 km/h 8 km/h 35 % 0 mm
14:04 27.5 °C 12.7 °C 1009.4 hPa NNW 1.6 km/h 8 km/h 40 % 0 mm
14:09 27.7 °C 10.8 °C 1009.4 hPa SW 3.2 km/h 6.4 km/h 35 % 0 mm
14:14 27.8 °C 12.2 °C 1009.4 hPa Calm   6.4 km/h 38 % 0 mm
14:19 27.9 °C 10.6 °C 1009.4 hPa NW 3.2 km/h 6.4 km/h 34 % 0 mm
14:24 27.7 °C 10.4 °C 1009.4 hPa Calm   9.7 km/h 34 % 0 mm
14:29 27.9 °C 12.3 °C 1009.4 hPa Calm   9.7 km/h 38 % 0 mm
14:34 28.2 °C 11.3 °C 1009.4 hPa Calm   9.7 km/h 35 % 0 mm
14:39 28.2 °C 9.9 °C 1009 hPa NW 4.8 km/h 6.4 km/h 32 % 0 mm
14:44 27.8 °C 9.6 °C 1009 hPa WNW 3.2 km/h 6.4 km/h 32 % 0 mm
14:49 27.8 °C 10.5 °C 1009 hPa NNW 1.6 km/h 9.7 km/h 34 % 0 mm
14:54 27.9 °C 10.6 °C 1009 hPa Calm   9.7 km/h 34 % 0 mm
14:59 28.2 °C 10.8 °C 1009 hPa WSW 3.2 km/h 9.7 km/h 34 % 0 mm
15:04 28.2 °C 11.3 °C 1008.7 hPa SW 3.2 km/h 8 km/h 35 % 0 mm
15:09 28.2 °C 9.9 °C 1008.7 hPa NW 6.4 km/h 8 km/h 32 % 0 mm
15:14 28.2 °C 11.7 °C 1008.4 hPa SSE 1.6 km/h 9.7 km/h 36 % 0 mm
15:19 28.4 °C 10.6 °C 1008.4 hPa Calm   9.7 km/h 33 % 0 mm
15:24 28.5 °C 12 °C 1008.4 hPa Calm   9.7 km/h 36 % 0 mm
15:29 28.7 °C 12.2 °C 1008.4 hPa SW 1.6 km/h 8 km/h 36 % 0 mm
15:34 28.6 °C 10.3 °C 1008.4 hPa Calm   8 km/h 32 % 0 mm
15:39 28.6 °C 11.2 °C 1008.4 hPa WNW 1.6 km/h 8 km/h 34 % 0 mm
15:44 28.7 °C 10.8 °C 1008.4 hPa SSW 3.2 km/h 8 km/h 33 % 0 mm
15:50 28.7 °C 9.9 °C 1008.4 hPa Calm   6.4 km/h 31 % 0 mm
15:55 28.8 °C 10.5 °C 1008 hPa Calm   6.4 km/h 32 % 0 mm
16:00 28.9 °C 11 °C 1008 hPa WSW 3.2 km/h 6.4 km/h 33 % 0 mm
16:05 28.8 °C 10.9 °C 1008 hPa SW 1.6 km/h 6.4 km/h 33 % 0 mm
16:10 28.8 °C 10.9 °C 1008 hPa South 1.6 km/h 8 km/h 33 % 0 mm
16:15 28.9 °C 11.5 °C 1008 hPa WSW 1.6 km/h 8 km/h 34 % 0 mm
16:20 28.9 °C 10.1 °C 1008 hPa SSW 1.6 km/h 6.4 km/h 31 % 0 mm
16:25 28.8 °C 11.4 °C 1008 hPa WSW 3.2 km/h 6.4 km/h 34 % 0 mm
16:30 28.8 °C 10.5 °C 1008 hPa Calm   6.4 km/h 32 % 0 mm
16:35 28.9 °C 10.5 °C 1008 hPa WSW 1.6 km/h 6.4 km/h 32 % 0 mm
16:40 29.1 °C 12.1 °C 1008 hPa Calm   6.4 km/h 35 % 0 mm
16:45 29.2 °C 11.3 °C 1008 hPa SW 3.2 km/h 6.4 km/h 33 % 0 mm
16:51 28.8 °C 10.9 °C 1008 hPa WSW 1.6 km/h 6.4 km/h 33 % 0 mm
16:56 28.7 °C 10.4 °C 1008 hPa SW 4.8 km/h 6.4 km/h 32 % 0 mm
17:01 28.6 °C 10.8 °C 1008 hPa SW 1.6 km/h 6.4 km/h 33 % 0 mm
17:06 28.6 °C 10.3 °C 1008 hPa WSW 1.6 km/h 6.4 km/h 32 % 0 mm
17:11 28.4 °C 10.1 °C 1008 hPa Calm   6.4 km/h 32 % 0 mm
17:16 28.5 °C 10.7 °C 1008 hPa West 1.6 km/h 6.4 km/h 33 % 0 mm
17:21 28.4 °C 10.1 °C 1008 hPa SSW 1.6 km/h 6.4 km/h 32 % 0 mm
17:26 28.2 °C 10.4 °C 1008 hPa Calm   3.2 km/h 33 % 0 mm
17:31 28.1 °C 10.3 °C 1008 hPa SW 1.6 km/h 3.2 km/h 33 % 0 mm
17:36 27.7 °C 10 °C 1008 hPa Calm   3.2 km/h 33 % 0 mm
17:41 27.3 °C 10.5 °C 1008 hPa South 4.8 km/h 4.8 km/h 35 % 0 mm
17:46 26.8 °C 11.3 °C 1008 hPa SSW 4.8 km/h 8 km/h 38 % 0 mm
17:51 26.4 °C 11.3 °C 1008 hPa SSW 1.6 km/h 8 km/h 39 % 0 mm
17:56 26 °C 11.4 °C 1008 hPa Calm   8 km/h 40 % 0 mm
18:01 25.6 °C 11.4 °C 1008 hPa SW 3.2 km/h 4.8 km/h 41 % 0 mm
18:06 25.3 °C 11.5 °C 1008.4 hPa Calm   4.8 km/h 42 % 0 mm
18:11 25 °C 11.2 °C 1008.4 hPa Calm   4.8 km/h 42 % 0 mm
18:16 24.7 °C 10.9 °C 1008.4 hPa Calm   4.8 km/h 42 % 0 mm
18:21 24.3 °C 10.9 °C 1008.4 hPa Calm   3.2 km/h 43 % 0 mm
18:26 23.9 °C 10.9 °C 1008.4 hPa Calm   3.2 km/h 44 % 0 mm
18:31 23.6 °C 11 °C 1008.4 hPa Calm   1.6 km/h 45 % 0 mm
18:36 23.3 °C 10.7 °C 1008.4 hPa Calm   1.6 km/h 45 % 0 mm
18:41 22.9 °C 10.3 °C 1008.4 hPa Calm   1.6 km/h 45 % 0 mm
18:46 22.5 °C 10.3 °C 1008.4 hPa Calm     46 % 0 mm
18:51 22.1 °C 10.9 °C 1008.4 hPa Calm     49 % 0 mm
18:57 21.7 °C 10.8 °C 1008.4 hPa Calm     50 % 0 mm
19:02 21.3 °C 10.5 °C 1008.4 hPa Calm     50 % 0 mm
19:07 20.9 °C 10.7 °C 1008.4 hPa Calm     52 % 0 mm
19:12 20.6 °C 10.7 °C 1008.4 hPa Calm     53 % 0 mm
19:17 20.2 °C 10.6 °C 1008.4 hPa Calm     54 % 0 mm
19:22 19.8 °C 10.5 °C 1008.4 hPa Calm     55 % 0 mm
19:27 19.5 °C 10.8 °C 1008.4 hPa Calm     57 % 0 mm
19:32 19.3 °C 11.3 °C 1008.4 hPa Calm     60 % 0 mm
19:37 19.2 °C 11.2 °C 1008.4 hPa Calm     60 % 0 mm
19:42 19 °C 11.1 °C 1008.4 hPa Calm     60 % 0 mm
19:47 18.8 °C 10.9 °C 1008.4 hPa Calm     60 % 0 mm
19:52 18.7 °C 11 °C 1008.7 hPa Calm     61 % 0 mm
19:57 18.7 °C 11.3 °C 1008.7 hPa Calm     62 % 0 mm
20:02 18.6 °C 10.9 °C 1008.7 hPa Calm     61 % 0 mm
20:07 18.3 °C 10.4 °C 1008.7 hPa Calm     60 % 0 mm
20:12 18.1 °C 11.2 °C 1008.7 hPa Calm     64 % 0 mm
20:17 17.9 °C 11.2 °C 1008.7 hPa Calm     65 % 0 mm
20:22 17.9 °C 11.7 °C 1008.7 hPa Calm     67 % 0 mm
20:27 17.8 °C 11.6 °C 1008.7 hPa Calm     67 % 0 mm
20:32 17.6 °C 11.6 °C 1008.7 hPa Calm     68 % 0 mm
20:37 17.6 °C 12.1 °C 1008.7 hPa Calm     70 % 0 mm
20:42 17.5 °C 11.3 °C 1008.7 hPa Calm     67 % 0 mm
20:47 17.3 °C 11.3 °C 1008.7 hPa Calm     68 % 0 mm
20:52 17.1 °C 11.4 °C 1008.7 hPa Calm     69 % 0 mm
20:57 17.1 °C 11.8 °C 1008.7 hPa Calm     71 % 0 mm
21:02 17 °C 11.5 °C 1008.7 hPa Calm     70 % 0 mm
21:07 16.8 °C 11.7 °C 1008.7 hPa SE 6.4 km/h   72 % 0 mm
21:12 17.3 °C 12.2 °C 1008.7 hPa Calm   8 km/h 72 % 0 mm
21:17 17.8 °C 12.5 °C 1008.7 hPa Calm   8 km/h 71 % 0 mm
21:22 17.9 °C 12.4 °C 1008.7 hPa Calm   8 km/h 70 % 0 mm
21:27 17.9 °C 12.1 °C 1008.7 hPa Calm   4.8 km/h 69 % 0 mm
21:32 17.8 °C 11.8 °C 1008.7 hPa Calm   3.2 km/h 68 % 0 mm
21:37 17.7 °C 12.2 °C 1008.7 hPa Calm   1.6 km/h 70 % 0 mm
21:42 17.8 °C 12.3 °C 1008.7 hPa Calm   1.6 km/h 70 % 0 mm
21:47 17.8 °C 12 °C 1008.7 hPa Calm   1.6 km/h 69 % 0 mm
21:52 17.7 °C 12.2 °C 1008.7 hPa Calm   1.6 km/h 70 % 0 mm
21:57 17.8 °C 12.5 °C 1008.7 hPa Calm   1.6 km/h 71 % 0 mm
22:02 17.8 °C 12.5 °C 1008.7 hPa Calm     71 % 0 mm
22:07 17.8 °C 12.5 °C 1008.7 hPa Calm     71 % 0 mm
22:12 17.8 °C 12.5 °C 1008.7 hPa Calm     71 % 0 mm
22:17 17.7 °C 12.4 °C 1008.7 hPa Calm     71 % 0 mm
22:23 17.7 °C 12.6 °C 1008.7 hPa SSE 1.6 km/h 3.2 km/h 72 % 0 mm
22:28 17.7 °C 12.6 °C 1008.7 hPa SE 1.6 km/h 3.2 km/h 72 % 0 mm
22:33 17.8 °C 12.5 °C 1008.7 hPa SE 3.2 km/h 4.8 km/h 71 % 0 mm
22:38 17.8 °C 12.3 °C 1008.7 hPa South 1.6 km/h 4.8 km/h 70 % 0 mm
22:43 17.8 °C 12.3 °C 1008.4 hPa ESE 1.6 km/h 6.4 km/h 70 % 0 mm
22:48 17.8 °C 12 °C 1008.4 hPa SE 1.6 km/h 6.4 km/h 69 % 0 mm
22:53 17.8 °C 12 °C 1008.4 hPa SE 3.2 km/h 6.4 km/h 69 % 0 mm
22:58 17.8 °C 12 °C 1008.4 hPa East 3.2 km/h 4.8 km/h 69 % 0 mm
23:03 17.7 °C 12.2 °C 1008.4 hPa Calm   4.8 km/h 70 % 0 mm
23:08 17.6 °C 12.3 °C 1008.4 hPa SE 1.6 km/h 4.8 km/h 71 % 0 mm
23:13 17.4 °C 12.1 °C 1008.4 hPa SE 1.6 km/h 4.8 km/h 71 % 0 mm
23:18 17.2 °C 11.9 °C 1008 hPa SE 1.6 km/h 3.2 km/h 71 % 0 mm
23:23 17.1 °C 12 °C 1008 hPa Calm   3.2 km/h 72 % 0 mm
23:28 16.9 °C 11.8 °C 1008 hPa Calm   3.2 km/h 72 % 0 mm
23:33 16.8 °C 11.9 °C 1008 hPa Calm   1.6 km/h 73 % 0 mm
23:38 16.7 °C 11.8 °C 1008 hPa Calm   1.6 km/h 73 % 0 mm
23:43 16.6 °C 11.7 °C 1008 hPa Calm   1.6 km/h 73 % 0 mm
23:48 16.4 °C 11.5 °C 1008 hPa Calm   1.6 km/h 73 % 0 mm
23:53 16.4 °C 11.8 °C 1008 hPa SE 1.6 km/h 1.6 km/h 74 % 0 mm
23:58 16.3 °C 11.5 °C 1008 hPa Calm   1.6 km/h 73 % 0 mm
Spring, Texas: Villages of Bridgestone
Compliments of Weather Underground - 2.75 mb

Script developed by  Jim McMurry - jmcmurry@mwt.net Adapted for the template by  Wim van der Kuil - Leuven-Template.eu

You find our weather info also at:

UK Metoffice

WeatherCloud

Weather Underground

Mid-South Weather Network

AWEKAS

Citizen Weather Observer Program (CWOP)

HAMweather, WeatherForYou, PWS Weather

Equipment we use:

Weather-station
Davis Vantage Vue

Weather-program
Meteohub

Weather-server
Debian 7.9 x86 (Guest)

Provider
DreamHost

Davis Vantage Vue

Meteohub

Debian 7.9 x86 (Guest)

DreamHost